CUTE-1

Satellite information

Favourite Embed

Satellite Type and Status

PAYLOADIN ORBIT

Key statistics

Satellite CUTE-1 at a glance.

Uptime

8041

Days in orbit

Revolutions

≈ 14.2

Per day

Orbit

SSO

Sun Synchronous Orbit

Inclination

98.7

Latest

Satellite identification and parameters

Extended collection of information and parameters for CUTE-1.

Object identification

Identified? True

Debris? False

Object name: CUTE-1

International designator: 2003-031E

Object number (NORAD): 27844

Object ID (CCSDS): 27844

Country: JAPAN (JPN)

Current information (Y/N): Y

RCS size: SMALL

Orbital parameters

Period: 101.123 minutes

Inclination: 98.6754 deg

SMA: 7189.952 km

Apoapsis: 819.594 km

Periapsis: 804.041 km

RAAN: 193.5042 deg

Eccentricy: 0.0010816

Argument of periapsis: 112.3837 deg

Mean anomaly: 247.8488 deg

Mean motion: 14.24012279 rev/day

Mean motion (dot): 0.00000252 rev/day2

B* drag term: 0.00012888 1/REarth

Two-line elements (TLE)

Creation date: July 4, 2025, 6:39 p.m.

Reference frame: TEME

Reference center: EARTH

Epoch: July 4, 2025, 1:16 p.m. UTC

TLE line 0: 0 CUTE-1

TLE line 1: 1 27844U 03031E 25185.55335301 .00000252 00000-0 12888-3 0 9997

TLE line 2: 2 27844 98.6754 193.5042 0010816 112.3837 247.8488 14.24012279142191

Live tracking on map

Real-time ground track for satellite CUTE-1.

In-orbit conjunctions

There are no conjunctions computed for CUTE-1, at the moment. Check back to stay up to date, as we update our databases every day.

Go to all conjunctions

Associated space launch

MIMOSA (Micro Measurements Of Satellite Acceleration) is a microsatellite to measure atmospheric drag.

CUTE-1 was lifted into orbit during the mission ‘Rokot / Briz-KM | Mimosa’, on board a Rokot/Briz-KM space rocket.

The launch took place on June 30, 2003, 2:15 p.m. from 133/3 (133L).

For more information about the launch, click the button.

Launch to space Rokot / Briz-KM | Mimosa
Rokot / Briz-KM | Mimosa

Agency: N/A

Status: Launch Successful

Launch date: June 30, 2003, 2:15 p.m. UTC

Rocket: Rokot/Briz-KM

Launch pad: 133/3 (133L)

Location: Plesetsk Cosmodrome, Russian Federation

...

Latest news about this satellite

There are no fresh news available about this satellite. Check back as we update our databases every day.


Newsletter sign-up

Weekly statistics, charts and insights to help you stay on top of the space industry.